AO-07 1 07530U 74089B 24165.64804102 -.00000034 00000-0 77070-4 0 9999 2 07530 101.9773 160.2632 0012636 90.9622 22.7188 12.53676100268590 UO-11 1 14781U 84021B 24165.52264070 .00002151 00000-0 24755-3 0 9995 2 14781 97.7043 134.9041 0009802 89.3979 270.8360 14.86721762147944 AO-16 1 20439U 90005D 24165.64473681 .00000253 00000-0 10882-3 0 9991 2 20439 98.8990 170.6706 0009982 217.6060 258.7004 14.33389680796823 LO-19 1 20442U 90005G 24165.52446468 .00000279 00000-0 11765-3 0 9994 2 20442 98.8819 155.6955 0011399 191.0023 169.0913 14.33550296797316 AO-27 1 22825U 93061C 24165.62078475 .00000198 00000-0 93424-4 0 9999 2 22825 98.7884 218.3591 0009571 90.0816 270.1463 14.30504744602104 IO-26 1 22826U 93061D 24165.60029829 .00000225 00000-0 10313-3 0 9993 2 22826 98.7832 218.2021 0010048 76.8805 283.3498 14.30886980602385 FO-29 1 24278U 96046B 24165.42226587 -.00000014 00000-0 22055-4 0 9996 2 24278 98.5804 100.5720 0349812 197.8542 161.0050 13.53190137373927 NOAA-15 1 25338U 98030A 24165.58956148 .00000329 00000-0 15416-3 0 9999 2 25338 98.5682 192.7916 0009765 342.0048 18.0785 14.26601876356671 GO-32 1 25397U 98043D 24165.51347331 .00000156 00000-0 87652-4 0 9999 2 25397 98.9211 132.1813 0001817 133.0835 227.0495 14.24055597346898 ISS 1 25544U 98067A 24165.66806182 .00015924 00000-0 28090-3 0 9998 2 25544 51.6406 332.7035 0008244 293.8140 153.2995 15.50527850458001 NO-44 1 26931U 01043C 24165.57289423 .00000308 00000-0 14779-3 0 9999 2 26931 67.0517 340.8907 0007042 279.5882 80.4423 14.31250779185435 SO-50 1 27607U 02058C 24165.54915112 .00001565 00000-0 22894-3 0 9998 2 27607 64.5545 232.7310 0026864 114.7541 245.6363 14.79010663155782 CO-55 1 27844U 03031E 24165.57553907 .00000541 00000-0 25822-3 0 9993 2 27844 98.6762 172.6551 0010394 148.9293 211.2502 14.23273814 87277 CO-57 1 27848U 03031J 24165.50825238 .00000452 00000-0 22104-3 0 9990 2 27848 98.6793 172.8357 0009940 164.3617 195.7870 14.22713609 87014 RS-22 1 27939U 03042A 24165.61993905 .00001865 00000-0 31945-3 0 9994 2 27939 98.2908 321.7633 0013147 73.9127 66.1667 14.69967484107624 NOAA-18 1 28654U 05018A 24165.52653500 .00000297 00000-0 18183-3 0 9995 2 28654 98.8743 242.5217 0015253 75.7605 284.5260 14.13229945982652 CO-58 1 28895U 05043F 24165.35468858 .00002366 00000-0 42338-3 0 9999 2 28895 98.2013 301.1763 0015728 14.3715 345.7934 14.67724228993898 CO-65 1 32785U 08021C 24165.47354208 .00005070 00000-0 44799-3 0 9995 2 32785 97.7549 130.8318 0010609 349.6592 10.4410 14.96748365874929 AAUSAT2 1 32788U 08021F 24165.48283889 .00018456 00000-0 92475-3 0 9991 2 32788 97.5941 145.7115 0006339 159.3334 200.8156 15.17401660877766 CO-66 1 32791U 08021J 24165.40806423 .00010174 00000-0 74338-3 0 9999 2 32791 97.6890 136.5979 0004355 335.9665 24.1357 15.03831697875956 RS-30 1 32953U 08025A 24165.53062996 .00000044 00000-0 24465-3 0 9997 2 32953 82.5028 91.7608 0020444 110.5619 249.7657 12.43142445728532 PRISM 1 33493U 09002B 24165.10176791 .00022036 00000-0 10440-2 0 9997 2 33493 98.2047 212.3731 0011233 255.7099 104.2886 15.19289799838424 NOAA-19 1 33591U 09005A 24165.61899641 .00000258 00000-0 16249-3 0 9997 2 33591 99.0470 221.3805 0012862 304.6151 55.3807 14.13025692790863 SRMSAT 1 37841U 11058D 24165.36343916 .00000514 00000-0 13652-3 0 9991 2 37841 19.9700 179.9108 0011973 53.1863 336.3300 14.11125521654021 HRBE 1 37855U 11061F 24165.05678374 .00500721 98996-4 16882-2 0 9992 2 37855 101.6832 349.8573 0030878 325.7039 34.2223 15.89133258692407 RS-40 1 38735U 12041C 24165.55456876 .00000042 00000-0 23515-3 0 9993 2 38735 82.4747 172.1483 0016359 223.4334 136.5457 12.42610031538727 ZACUBE-1 1 39417U 13066B 24165.42424943 .00004984 00000-0 51998-3 0 9990 2 39417 97.7337 121.4780 0050966 170.8640 189.3517 14.89222436571027 Delfi-N3xt 1 39428U 13066N 24165.27456534 .00007069 00000-0 90093-3 0 9992 2 39428 97.8385 83.7112 0103002 101.1536 260.1276 14.78092167565514 GOMX-1 1 39430U 13066Q 24165.63251130 .00001903 00000-0 32310-3 0 9999 2 39430 97.7329 40.2313 0138459 264.1538 94.3868 14.64186511562345 LO-74 1 39440U 13066AA 24165.60182120 .00004204 00000-0 49874-3 0 9999 2 39440 97.8126 109.3483 0068015 286.3961 72.9784 14.83385967567805 AO-73 1 39444U 13066AE 24165.45763161 .00005457 00000-0 53036-3 0 9992 2 39444 97.7192 124.6246 0049096 151.3732 209.0199 14.92078877569559 SPROUT 1 39770U 14029E 24165.38124370 .00145455 00000-0 28218-2 0 9995 2 39770 98.0081 317.5791 0008009 224.0786 135.9824 15.47092974547065 DTUSAT-2 1 40030U 14033W 24165.61101523 .00006303 00000-0 53304-3 0 9995 2 40030 98.0065 117.9557 0011035 155.0861 205.0895 14.98380907542164 EO-80 1 40032U 14033Y 24165.57982326 .00005257 00000-0 44499-3 0 9992 2 40032 98.0062 117.9366 0009713 158.6641 201.4987 14.98431724542139 XW-2C 1 40906U 15049H 24165.55387357 .00025361 00000-0 58673-3 0 9998 2 40906 97.4781 182.2685 0005794 323.2204 36.8645 15.42448482483919 XW-2D 1 40907U 15049J 24165.59014694 .00041728 00000-0 74713-3 0 9992 2 40907 97.4714 184.7804 0003646 299.9198 60.1690 15.49853540484149 LILACSAT-2 1 40908U 15049K 24165.58874109 .00008681 00000-0 33636-3 0 9997 2 40908 97.5236 174.2713 0012235 12.7849 347.3697 15.26334382482947 XW-2B 1 40911U 15049N 24165.61472520 .00038938 00000-0 71618-3 0 9996 2 40911 97.4689 184.9083 0003595 303.4623 56.6284 15.49100377484011 IO-86 1 40931U 15052B 24161.65716409 .00001690 00000-0 14136-3 0 9996 2 40931 6.0007 46.5134 0013068 333.1018 26.8433 14.77870516470342 ChubuSat-2 1 41338U 16012B 24165.37700942 .00005597 00000-0 34587-3 0 9995 2 41338 31.0025 55.3361 0011199 200.6798 159.3387 15.08301175457023 ChubuSat-3 1 41339U 16012C 24165.38487018 .00004973 00000-0 31158-3 0 9991 2 41339 31.0085 53.7434 0011227 205.1406 154.8685 15.07725614456916 Horyu-4 1 41340U 16012D 24164.92598059 .00012960 00000-0 64427-3 0 9990 2 41340 31.0031 3.3796 0010066 293.7595 66.1989 15.16371478457506 Lapan A3 1 41603U 16040E 24165.56797993 .00003632 00000-0 14685-3 0 9999 2 41603 97.1417 179.4516 0013857 111.8047 248.4667 15.25243999442673 Pratham 1 41783U 16059A 24165.30590948 .00001370 00000-0 26278-3 0 9999 2 41783 97.8359 184.8249 0033318 35.3235 325.0167 14.64899768411979 CAS-2T 1 41847U 16066G 24165.55887673 .00002408 00000-0 35931-3 0 9998 2 41847 98.4599 236.8858 0354068 188.1157 171.4211 14.41248397398973 CAS-4B 1 42759U 17034B 24165.58237372 .00014043 00000-0 50868-3 0 9999 2 42759 43.0157 246.9324 0012870 321.3350 38.6580 15.28164838386850 CAS-4A 1 42761U 17034D 24165.58392516 .00013678 00000-0 49434-3 0 9994 2 42761 43.0200 245.2733 0011604 330.4880 29.5316 15.28272105386854 Aalto 1 1 42775U 17036L 24165.58038561 .00089094 00000-0 81002-3 0 9990 2 42775 97.1028 195.1670 0006676 183.6660 176.4554 15.67659811388547 URSA MAIOR 1 42776U 17036M 24165.57583079 .00424263 72948-4 11497-2 0 9994 2 42776 97.0926 199.7354 0008513 194.3060 165.7976 15.94171246388830 Max Valier Sat 1 42778U 17036P 24165.56799367 .00444010 80585-4 11699-2 0 9996 2 42778 97.0784 203.8047 0006860 190.4546 169.6589 15.94725946389015 D-SAT 1 42794U 17036AF 24165.53395819 .00004547 00000-0 31920-3 0 9992 2 42794 97.4849 147.5655 0111041 159.9109 200.6539 15.00704305380173 TechnoSat 1 42829U 17042E 24165.57205856 .00003735 00000-0 33202-3 0 9996 2 42829 97.3838 346.8440 0013860 87.9614 272.3195 14.96604189376639 AO-91 1 43017U 17073E 24165.63779458 .00007034 00000-0 43886-3 0 9996 2 43017 97.5780 41.2526 0209171 305.8777 52.3179 14.93416996355136 TianYi 2 1 43155U 18008A 24165.53333583 .00106046 00000-0 12606-2 0 9990 2 43155 97.2346 219.4608 0006283 116.4424 243.7479 15.60777935354336 Zhou Enlai 1 43156U 18008B 24165.26411853 .00260814 00000-0 16940-2 0 9997 2 43156 97.2352 221.2238 0003882 171.3597 188.7736 15.75221678354335 TianYi 6 1 43158U 18008D 24165.57599213 .00050241 00000-0 98097-3 0 9995 2 43158 97.2544 214.1618 0008111 115.1593 245.0499 15.47291533353917 S-Net D 1 43186U 18014G 24165.46189375 .00005067 00000-0 36510-3 0 9993 2 43186 97.5921 67.3671 0011292 29.5230 330.6632 15.04562857347946 S-Net B 1 43187U 18014H 24165.46414446 .00005116 00000-0 36860-3 0 9997 2 43187 97.5929 67.3186 0011879 24.0913 336.0866 15.04556015347943 S-Net A 1 43188U 18014J 24165.46305186 .00005120 00000-0 36878-3 0 9992 2 43188 97.5933 67.4300 0011826 25.0871 335.0928 15.04564113347940 S-Net C 1 43189U 18014K 24165.20025826 .00005637 00000-0 40553-3 0 9993 2 43189 97.5947 67.1185 0013302 16.8889 343.2777 15.04556019346456 Ten-Koh 1 43677U 18084G 24165.46266422 .00002689 00000-0 24466-3 0 9998 2 43677 98.0636 318.8848 0014730 34.4834 325.7339 14.96027120306162 PO-101 1 43678U 18084H 24165.59410540 .00002607 00000-0 24204-3 0 9995 2 43678 98.0720 323.4769 0010112 50.1048 310.1059 14.95297003306382 QO-100 1 43700U 18090A 24165.51044719 .00000153 00000-0 00000-0 0 9990 2 43700 0.0181 323.3705 0001949 159.0755 349.4785 1.00275985 20328 MinXSS-2 1 43758U 18099A 24165.12228516 .00011361 00000-0 71976-3 0 9994 2 43758 97.5536 227.5424 0015635 335.1569 24.8905 15.09015547302170 AO-95 1 43770U 18099N 24165.11867009 .00008878 00000-0 61535-3 0 9992 2 43770 97.5445 223.0504 0013759 21.9343 338.2470 15.05779430301956 RANGE-B 1 43772U 18099Q 24165.41460625 .00010874 00000-0 67468-3 0 9990 2 43772 97.5230 226.8004 0003891 278.0751 82.0037 15.09883241302156 RANGE-A 1 43773U 18099R 24165.57506537 .00005218 00000-0 39823-3 0 9991 2 43773 97.4974 218.9286 0013466 347.7513 12.3383 15.02343268301897 MOVE-II 1 43780U 18099Y 24165.46064173 .00019633 00000-0 10318-2 0 9995 2 43780 97.5208 228.4824 0005459 1.4188 358.7059 15.15710633302363 SNUSat 2 1 43782U 18099AA 24165.39669857 .00005919 00000-0 42131-3 0 9990 2 43782 97.5125 222.4960 0013456 318.7713 41.2496 15.04925429302001 SnugLite 1 43784U 18099AC 24165.61683795 .00006811 00000-0 46987-3 0 9999 2 43784 97.4953 222.0527 0003294 344.1604 15.9520 15.06108478302103 ITASat 1 1 43786U 18099AE 24165.60090062 .00004893 00000-0 35492-3 0 9996 2 43786 97.5093 222.9665 0017183 10.1718 349.9853 15.04251920302031 EAGLET 1 1 43790U 18099AJ 24165.11177806 .00005741 00000-0 43223-3 0 9993 2 43790 97.5281 222.9715 0013349 346.0402 14.0453 15.02820267301660 ESEO 1 43792U 18099AL 24165.60214850 .00001862 00000-0 15558-3 0 9990 2 43792 97.5152 220.3433 0012521 341.2306 18.8454 14.99648612301669 CSIM 1 43793U 18099AM 24165.44838201 .00016044 00000-0 84708-3 0 9996 2 43793 97.5288 230.1910 0011023 327.7268 32.3289 15.15552574302210 JO-97 1 43803U 18099AX 24165.44942702 .00009551 00000-0 63495-3 0 9995 2 43803 97.5194 224.2017 0008705 319.5652 40.4928 15.07352791302130 Suomi 100 1 43804U 18099AY 24165.16669924 .00008172 00000-0 55436-3 0 9991 2 43804 97.5276 223.7259 0014490 318.5874 41.4254 15.06596829302074 ISAT 1 43879U 18111D 24165.63385985 .00010861 00000-0 66220-3 0 9993 2 43879 97.6191 71.3522 0013478 20.6525 339.5246 15.10457580298882 UWE-4 1 43880U 18111E 24165.28628356 .00010719 00000-0 66984-3 0 9997 2 43880 97.6115 71.0357 0017416 28.4834 331.7343 15.09508909298846 Sparrow 1 43881U 18111F 24165.47366915 .00010715 00000-0 64468-3 0 9990 2 43881 97.6284 73.0870 0012053 60.5267 299.7164 15.10959283298925 AISat 1 1 44104U 19018AC 24165.56585174 .00405559 75630-4 66002-3 0 9991 2 44104 97.3518 276.9475 0009512 308.2715 51.7709 16.03277088292308 Prox-1 1 44339U 19036A 24165.57163419 .00008479 00000-0 14465-2 0 9996 2 44339 23.9993 248.6932 0008215 324.8493 35.1459 14.66820482264711 SONATE 1 44400U 19038Q 24165.55059510 .00018666 00000-0 56535-3 0 9995 2 44400 97.7119 159.4834 0018390 117.0590 243.2531 15.34050414273522 Taurus 1 1 44530U 19059C 24165.59387601 .00006036 00000-0 14000-2 0 9999 2 44530 98.5755 285.6655 0012005 71.3454 288.9044 14.55352342251249 Duchifat 3 1 44854U 19089C 24165.43796918 .00015615 00000-0 79037-3 0 9994 2 44854 36.9572 71.7805 0004806 36.3247 323.7826 15.16355840247709 TO-108 1 44881U 19093C 24165.53407449 .00001418 00000-0 17757-3 0 9995 2 44881 97.8283 242.3865 0013762 340.1094 19.9582 14.83749535242500 FloripaSat 1 1 44885U 19093G 24165.52305225 .00005290 00000-0 55029-3 0 9993 2 44885 97.8403 248.1244 0011497 332.1970 27.8632 14.90242630242821 RS-44 1 44909U 19096E 24165.59414240 .00000046 00000-0 13317-3 0 9996 2 44909 82.5207 107.1642 0218637 59.7354 302.5189 12.79730579208517 BY70-2 1 45857U 20042B 24165.60680361 .00131039 00000-0 43429-2 0 9996 2 45857 97.9062 258.9078 0012248 227.9221 132.0978 15.30666249214004 UPMSat 2 1 46276U 20061E 24165.44540459 .00016037 00000-0 49083-3 0 9991 2 46276 97.2967 231.7361 0002662 125.6735 234.4756 15.33906216209609 AmicalSat 1 46287U 20061R 24165.46509599 .00031783 00000-0 87304-3 0 9998 2 46287 97.3489 232.7240 0002280 193.2321 166.8864 15.37167927208997 SALSAT 1 46495U 20068K 24165.43855282 .00007503 00000-0 42655-3 0 9999 2 46495 97.8156 124.6356 0012808 333.6562 26.4015 15.13123871203746 UVSQ-SAT 1 47438U 21006AB 24165.41775462 .00050915 00000-0 97767-3 0 9998 2 47438 97.3258 225.8519 0007072 210.3429 149.7413 15.47781268188152 YUSAT 1 1 47439U 21006AC 24165.43494193 .00174736 00000-0 14280-2 0 9996 2 47439 97.3196 230.5682 0008455 207.4005 152.6813 15.69989269188467 SOMP 2b 1 47445U 21006AJ 24165.60551822 .00037532 00000-0 80130-3 0 9995 2 47445 97.3223 224.3573 0006688 216.8269 143.2521 15.44753005188100 IDEASSat 1 47458U 21006AX 24165.44518219 .00037712 00000-0 88233-3 0 9996 2 47458 97.3331 224.7347 0006447 220.6070 139.4697 15.42023724188010 CubeSX-Sirius-HSE 1 47951U 21022V 24165.63244447 .00016839 00000-0 66305-3 0 9995 2 47951 97.4605 64.0052 0015915 143.7472 216.4847 15.25569673178035 CubeSX-HSE 1 47952U 21022W 24165.58610952 .00017358 00000-0 68117-3 0 9998 2 47952 97.4605 64.0497 0015851 143.0811 217.1521 15.25677455178033 KSU-Cubesat 1 47954U 21022Y 24165.45039849 .00023019 00000-0 82592-3 0 9990 2 47954 97.4616 65.2160 0015068 138.6202 221.6182 15.28593818177812 GRBAlpha 1 47959U 21022AD 24165.61624618 .00017161 00000-0 67153-3 0 9994 2 47959 97.4608 64.2292 0015664 143.1241 217.1077 15.25777747176868 Orbicraft-Zorkiy 1 47960U 21022AE 24165.61443716 .00020859 00000-0 76937-3 0 9992 2 47960 97.4651 65.4941 0015013 140.1557 220.0787 15.27708290177611 STECCO 1 47962U 21022AG 24165.57219055 .00125167 00000-0 15774-2 0 9995 2 47962 97.4591 74.9850 0011289 110.9817 249.2648 15.59119779177561 MO-110 1 47964U 21022AJ 24165.26934049 .00199479 00000-0 18794-2 0 9992 2 47964 97.4599 76.5017 0012344 112.6757 247.5809 15.66361132177626 TUBIN 1 48900U 21059X 24165.59112178 .00014305 00000-0 49276-3 0 9994 2 48900 97.6456 310.1211 0007873 101.3959 258.8165 15.30113983164372 LEDSAT 1 49069U 21073D 24165.24871852 .00014671 00000-0 59252-3 0 9991 2 49069 97.4372 236.4061 0017718 297.6184 62.3254 15.24725078155852 CUTE 1 49263U 21088D 24165.44455871 .00017987 00000-0 84333-3 0 9995 2 49263 97.4972 231.4607 0015794 97.1162 263.1869 15.19625088149070 TeikyoSat 4 1 49396U 21102B 24165.38718651 .00002612 00000-0 19127-3 0 9998 2 49396 97.4604 210.4966 0011448 291.6858 68.3149 15.04365526142182 Z-Sat 1 49399U 21102E 24165.62399208 .00004449 00000-0 28882-3 0 9999 2 49399 97.4307 212.2664 0018863 269.4399 90.4668 15.08413604142458 KOSEN 1 1 49402U 21102H 24165.60592713 .00006068 00000-0 36113-3 0 9993 2 49402 97.4239 213.6752 0017420 251.5230 108.4108 15.11463099142607 HO-113 1 50466U 21131B 24165.58127592 .00000826 00000-0 27821-3 0 9995 2 50466 98.5282 250.6669 0005207 129.5184 230.6464 14.39657979129484 Tevel-3 1 50988U 22002E 24165.48998385 .00161064 00000-0 14733-2 0 9996 2 50988 97.3753 241.1776 0002551 240.7856 119.3150 15.67301517134474 Tevel-8 1 50989U 22002F 24165.46776526 .00166672 00000-0 15375-2 0 9999 2 50989 97.3778 241.2464 0002438 238.3870 121.7152 15.67074685134461 Tevel-5 1 50998U 22002Q 24165.55287547 .00243395 00000-0 16109-2 0 9993 2 50998 97.3731 242.6948 0004797 247.8465 112.2290 15.74828112134588 Tevel-6 1 50999U 22002R 24165.56326772 .00227785 00000-0 15349-2 0 9999 2 50999 97.3724 242.6585 0004555 250.4881 109.5892 15.74454847134589 Tevel-1 1 51013U 22002AF 24165.58525486 .00155793 00000-0 14406-2 0 9994 2 51013 97.3749 241.1288 0002804 245.5276 114.5692 15.67048084134483 IRIS-A 1 51044U 22002BN 24165.46099609 .00019185 00000-0 63231-3 0 9993 2 51044 97.3844 231.9822 0006516 59.7205 300.4680 15.31481947133858 Tevel-7 1 51062U 22002CG 24165.58116822 .00160869 00000-0 14687-2 0 9999 2 51062 97.3767 241.3431 0002894 245.2395 114.8565 15.67348862134486 Tevel-4 1 51063U 22002CH 24165.56302418 .00156240 00000-0 14670-2 0 9996 2 51063 97.3768 241.2071 0002652 246.5412 113.5570 15.66665665134476 Tevel-2 1 51069U 22002CP 24165.55108110 .00160993 00000-0 14690-2 0 9996 2 51069 97.3749 241.2100 0002674 242.1017 117.9973 15.67363002134488 OreSat0 1 52017U 22026K 24165.47227455 .00062960 00000-0 99601-3 0 9992 2 52017 97.4949 179.5850 0011799 212.6859 147.3665 15.53168984125138 Planetum 1 1 52738U 22057G 24165.30529941 .00039996 00000-0 96225-3 0 9995 2 52738 97.5657 291.3093 0006105 167.3158 192.8243 15.41172230113972 Foresail-1 1 52766U 22057AL 24165.33712547 .00019370 00000-0 62981-3 0 9991 2 52766 97.5819 290.7550 0010343 143.3895 216.8054 15.31889584113866 SNUGLITE 2 1 52899U 22065F 24165.63041921 .00001684 00000-0 35395-3 0 9999 2 52899 98.1195 306.8444 0008306 156.5119 203.6463 14.60830459103741 IO-117 1 53106U 22080B 24150.13546523 -.00000003 00000-0 00000-0 0 9992 2 53106 70.1363 199.1393 0007665 111.3674 248.7804 6.42557538 44049 SelfieSat 1 53951U 22057BC 24165.35083970 .00087979 00000-0 12927-2 0 9995 2 53951 97.5675 295.1020 0006279 177.6999 182.4285 15.55164805114191 FO-118 1 54684U 22167C 24165.60350821 .00024952 00000-0 85803-3 0 9997 2 54684 97.6051 310.3463 0010943 158.2496 201.9211 15.30020170 83757 SSS-2B 1 56184U 23054G 24165.58129498 .00031817 00000-0 77565-3 0 9995 2 56184 97.3693 63.5405 0007710 164.4601 195.6883 15.40807943 65588 CIRBE 1 56188U 23054L 24165.23354207 .00069016 00000-0 11276-2 0 9997 2 56188 97.3621 65.0390 0007110 149.0122 211.1551 15.52295685 65677 INSPIRE-Sat 7 1 56211U 23054AK 24164.77722061 .00071940 00000-0 10982-2 0 9991 2 56211 97.3634 65.8207 0010612 137.0306 223.1778 15.54134996 65678 RoseyCubesat 1 1 56212U 23054AL 24165.56135732 .00091677 00000-0 11784-2 0 9993 2 56212 97.3647 67.3961 0011277 134.0746 226.1441 15.58711335 65841 SO-120 1 56992U 23084BU 24165.58646204 .00024881 00000-0 90916-3 0 9992 2 56992 97.5310 284.9067 0011776 42.6589 317.5563 15.28022211 55633 MRC-100 1 56993U 23084BV 24165.30056219 .00032373 00000-0 11097-2 0 9991 2 56993 97.5312 285.0047 0010745 41.2152 318.9897 15.30068947 55625 UmKA 1 (RS40S) 1 57172U 23091G 24165.61498766 .00005844 00000-0 38727-3 0 9993 2 57172 97.6119 217.6966 0018204 131.4140 228.8656 15.07541745 52950 CubeBel-2 (EU11S) 1 57175U 23091K 24165.56669998 .00008090 00000-0 52536-3 0 9997 2 57175 97.6111 217.5951 0016335 143.3170 216.9180 15.08195471 52947 VERONIKA 1 58261U 23174F 24165.57668264 .00015992 00000-0 72154-3 0 9999 2 58261 97.4599 240.3944 0011357 250.3924 109.6086 15.21028557 33164 KAFASAT 1 58317U 23174BP 24165.46842640 .00022040 00000-0 90300-3 0 9996 2 58317 97.4547 240.8420 0010893 225.5390 134.4958 15.24245240 33198 ENSO 1 58470U 23185J 24165.58761095 .00013934 00000-0 59120-3 0 9992 2 58470 97.4262 232.3464 0011071 290.7449 69.2601 15.23161971 29590 EIRSAT-1 1 58472U 23185L 24165.56213517 .00015804 00000-0 65906-3 0 9990 2 58472 97.4255 232.3609 0010665 291.1386 68.8711 15.23721175 29593 SO-121 1 58567U 23174CY 24165.19745951 .00043426 00000-0 15132-2 0 9990 2 58567 97.4531 240.9135 0012719 233.1301 126.8774 15.29444877 33179 SONATE-2 1 59112U 24043Q 24165.61117322 .00009422 00000-0 45830-3 0 9992 2 59112 97.4784 289.4908 0013819 309.0283 50.9720 15.18537951 15268 KASHIWA 1 59508U 98067WH 24165.16589697 .00143735 00000-0 13327-2 0 9997 2 59508 51.6321 331.7747 0009454 285.3823 74.6128 15.66449253 9868 /EX